Time,TemperatureF,DewpointF,PressureIn,WindDirection,WindDirectionDegrees,WindSpeedMPH,WindSpeedGustMPH,Humidity,HourlyPrecipIn,Conditions,Clouds,dailyrainin,SolarRadiationWatts/m^2,SoftwareType,DateUTC
2013-03-24 00:07:00,36.1,31.0,29.95,NNW,335,0.0,0.0,81,0.00,,,0.00,0,weatherlink.com 1.10,2013-03-24 04:07:00,
2013-03-24 00:22:00,35.3,30.0,29.94,NNW,335,0.0,0.0,82,0.00,,,0.00,0,weatherlink.com 1.10,2013-03-24 04:22:00,
2013-03-24 00:37:00,34.8,30.0,29.93,NNW,335,0.0,0.0,83,0.00,,,0.00,0,weatherlink.com 1.10,2013-03-24 04:37:00,
2013-03-24 00:52:00,34.5,30.0,29.93,NNW,335,0.0,0.0,84,0.00,,,0.00,0,weatherlink.com 1.10,2013-03-24 04:52:00,
2013-03-24 01:07:00,34.1,30.0,29.92,NNW,335,0.0,0.0,84,0.00,,,0.00,0,weatherlink.com 1.10,2013-03-24 05:07:00,
2013-03-24 01:22:00,33.8,30.0,29.93,NNW,335,0.0,0.0,86,0.00,,,0.00,0,weatherlink.com 1.10,2013-03-24 05:22:00,
2013-03-24 01:37:00,33.4,29.0,29.93,NNW,335,0.0,0.0,85,0.00,,,0.00,0,weatherlink.com 1.10,2013-03-24 05:37:00,
2013-03-24 01:52:00,33.5,30.0,29.92,NNW,335,0.0,0.0,87,0.00,,,0.00,0,weatherlink.com 1.10,2013-03-24 05:52:00,
2013-03-24 02:07:00,33.7,31.0,29.91,NNW,335,0.0,0.0,88,0.00,,,0.00,0,weatherlink.com 1.10,2013-03-24 06:07:00,
2013-03-24 02:22:00,34.0,31.0,29.91,NNW,335,0.0,0.0,88,0.00,,,0.00,0,weatherlink.com 1.10,2013-03-24 06:22:00,
2013-03-24 02:37:00,34.2,31.0,29.91,NNW,335,0.0,0.0,86,0.00,,,0.00,0,weatherlink.com 1.10,2013-03-24 06:37:00,
2013-03-24 02:52:00,35.7,32.0,29.93,SW,234,0.0,2.0,85,0.00,,,0.00,0,weatherlink.com 1.10,2013-03-24 06:52:00,
2013-03-24 03:07:00,36.2,32.0,29.94,SW,234,0.0,0.0,85,0.00,,,0.00,0,weatherlink.com 1.10,2013-03-24 07:07:00,
2013-03-24 03:22:00,36.3,33.0,29.94,SW,233,0.0,0.0,86,0.00,,,0.00,0,weatherlink.com 1.10,2013-03-24 07:22:00,
2013-03-24 03:37:00,36.4,32.0,29.94,SW,234,0.0,0.0,83,0.00,,,0.00,0,weatherlink.com 1.10,2013-03-24 07:37:00,
2013-03-24 03:52:00,36.7,32.0,29.94,SW,233,0.0,0.0,84,0.00,,,0.00,0,weatherlink.com 1.10,2013-03-24 07:52:00,
2013-03-24 04:07:00,37.0,32.0,29.93,SW,234,0.0,0.0,82,0.00,,,0.00,0,weatherlink.com 1.10,2013-03-24 08:07:00,
2013-03-24 04:22:00,37.3,33.0,29.91,SW,234,0.0,1.0,83,0.00,,,0.00,0,weatherlink.com 1.10,2013-03-24 08:22:00,
2013-03-24 04:37:00,37.5,33.0,29.90,SW,233,0.0,0.0,84,0.00,,,0.00,0,weatherlink.com 1.10,2013-03-24 08:37:00,
2013-03-24 04:52:00,37.7,33.0,29.89,SW,234,0.0,0.0,83,0.00,,,0.00,0,weatherlink.com 1.10,2013-03-24 08:52:00,
2013-03-24 05:07:00,38.0,34.0,29.89,SW,233,0.0,1.0,84,0.00,,,0.00,0,weatherlink.com 1.10,2013-03-24 09:07:00,
2013-03-24 05:22:00,38.4,34.0,29.90,SW,233,0.0,0.0,83,0.00,,,0.00,0,weatherlink.com 1.10,2013-03-24 09:22:00,
2013-03-24 05:37:00,38.6,35.0,29.89,SW,234,0.0,0.0,85,0.00,,,0.00,0,weatherlink.com 1.10,2013-03-24 09:37:00,
2013-03-24 05:52:00,38.8,34.0,29.88,SW,234,0.0,0.0,84,0.00,,,0.00,0,weatherlink.com 1.10,2013-03-24 09:52:00,
2013-03-24 06:08:00,39.1,35.0,29.85,SW,234,0.0,0.0,84,0.00,,,0.00,0,weatherlink.com 1.10,2013-03-24 10:08:00,
2013-03-24 06:23:00,39.5,35.0,29.86,SW,234,0.0,0.0,84,0.00,,,0.00,0,weatherlink.com 1.10,2013-03-24 10:23:00,
2013-03-24 06:38:00,39.9,35.0,29.87,SW,234,0.0,0.0,82,0.00,,,0.00,0,weatherlink.com 1.10,2013-03-24 10:38:00,
2013-03-24 06:53:00,40.3,35.0,29.87,SW,234,0.0,0.0,82,0.00,,,0.00,0,weatherlink.com 1.10,2013-03-24 10:53:00,
2013-03-24 07:08:00,40.6,36.0,29.87,SW,234,0.0,0.0,82,0.00,,,0.00,0,weatherlink.com 1.10,2013-03-24 11:08:00,
2013-03-24 07:23:00,40.6,37.0,29.86,SW,234,0.0,0.0,86,0.01,,,0.01,0,weatherlink.com 1.10,2013-03-24 11:23:00,
2013-03-24 07:38:00,40.6,37.0,29.84,ENE,61,0.0,4.0,86,0.01,,,0.01,7,weatherlink.com 1.10,2013-03-24 11:38:00,
2013-03-24 07:53:00,41.1,37.0,29.84,NE,48,0.0,3.0,85,0.01,,,0.01,7,weatherlink.com 1.10,2013-03-24 11:53:00,
2013-03-24 08:08:00,41.0,37.0,29.86,NE,48,0.0,0.0,87,0.02,,,0.02,7,weatherlink.com 1.10,2013-03-24 12:08:00,
2013-03-24 08:23:00,40.8,38.0,29.85,ENE,65,0.0,2.0,88,0.02,,,0.03,12,weatherlink.com 1.10,2013-03-24 12:23:00,
2013-03-24 08:38:00,40.6,37.0,29.84,NE,52,1.0,4.0,88,0.04,,,0.05,16,weatherlink.com 1.10,2013-03-24 12:38:00,
2013-03-24 08:53:00,40.3,37.0,29.82,NE,40,3.0,8.0,87,0.05,,,0.06,26,weatherlink.com 1.10,2013-03-24 12:53:00,
2013-03-24 09:08:00,40.1,37.0,29.82,NE,36,4.0,6.0,87,0.05,,,0.07,18,weatherlink.com 1.10,2013-03-24 13:08:00,
2013-03-24 09:23:00,40.1,37.0,29.78,North,5,2.0,8.0,87,0.05,,,0.08,49,weatherlink.com 1.10,2013-03-24 13:23:00,
2013-03-24 09:38:00,40.1,37.0,29.76,East,83,1.0,7.0,87,0.04,,,0.09,42,weatherlink.com 1.10,2013-03-24 13:38:00,
2013-03-24 09:53:00,40.5,37.0,29.77,ESE,111,2.0,14.0,86,0.02,,,0.09,35,weatherlink.com 1.10,2013-03-24 13:53:00,
2013-03-24 10:08:00,40.7,37.0,29.78,NNW,327,4.0,7.0,87,0.02,,,0.09,74,weatherlink.com 1.10,2013-03-24 14:08:00,
2013-03-24 10:23:00,40.6,38.0,29.82,North,360,1.0,5.0,89,0.03,,,0.11,37,weatherlink.com 1.10,2013-03-24 14:23:00,
2013-03-24 10:38:00,40.5,38.0,29.81,NNE,17,1.0,4.0,91,0.04,,,0.13,58,weatherlink.com 1.10,2013-03-24 14:38:00,
2013-03-24 10:53:00,40.2,38.0,29.79,NE,37,0.0,6.0,92,0.07,,,0.16,62,weatherlink.com 1.10,2013-03-24 14:53:00,
2013-03-24 11:08:00,40.0,38.0,29.76,North,11,2.0,7.0,92,0.08,,,0.17,74,weatherlink.com 1.10,2013-03-24 15:08:00,
2013-03-24 11:23:00,39.8,37.0,29.74,NE,34,3.0,8.0,91,0.06,,,0.17,76,weatherlink.com 1.10,2013-03-24 15:23:00,
2013-03-24 11:38:00,39.9,38.0,29.73,North,5,3.0,9.0,91,0.03,,,0.17,83,weatherlink.com 1.10,2013-03-24 15:38:00,
2013-03-24 11:53:00,39.8,37.0,29.73,NE,51,4.0,12.0,89,0.01,,,0.17,35,weatherlink.com 1.10,2013-03-24 15:53:00,
2013-03-24 12:08:00,39.7,37.0,29.71,East,84,5.0,12.0,90,0.00,,,0.17,47,weatherlink.com 1.10,2013-03-24 16:08:00,
2013-03-24 12:23:00,39.7,37.0,29.69,NNE,21,11.0,11.0,91,0.01,,,0.18,97,weatherlink.com 1.10,2013-03-24 16:23:00,
2013-03-24 12:38:00,39.7,38.0,29.68,NW,314,4.0,15.0,92,0.04,,,0.21,49,weatherlink.com 1.10,2013-03-24 16:38:00,
2013-03-24 12:53:00,39.6,38.0,29.66,NE,49,6.0,11.0,92,0.05,,,0.22,60,weatherlink.com 1.10,2013-03-24 16:53:00,
2013-03-24 13:08:00,39.6,38.0,29.66,NNE,30,1.0,14.0,93,0.05,,,0.22,23,weatherlink.com 1.10,2013-03-24 17:08:00,
2013-03-24 13:23:00,39.7,38.0,29.65,NW,325,4.0,9.0,93,0.06,,,0.24,62,weatherlink.com 1.10,2013-03-24 17:23:00,
2013-03-24 13:38:00,39.6,38.0,29.64,NNE,22,1.0,13.0,93,0.09,,,0.30,49,weatherlink.com 1.10,2013-03-24 17:38:00,
2013-03-24 13:53:00,39.6,38.0,29.64,NNW,348,1.0,13.0,94,0.16,,,0.38,51,weatherlink.com 1.10,2013-03-24 17:53:00,
2013-03-24 14:08:00,39.7,38.0,29.63,NE,44,5.0,9.0,94,0.19,,,0.41,77,weatherlink.com 1.10,2013-03-24 18:08:00,
2013-03-24 14:23:00,39.8,38.0,29.61,North,351,0.0,9.0,94,0.20,,,0.45,70,weatherlink.com 1.10,2013-03-24 18:23:00,
2013-03-24 14:38:00,39.8,38.0,29.60,ENE,63,5.0,8.0,94,0.17,,,0.47,60,weatherlink.com 1.10,2013-03-24 18:38:00,
2013-03-24 14:54:00,39.8,38.0,29.60,ENE,61,9.0,9.0,94,0.10,,,0.48,39,weatherlink.com 1.10,2013-03-24 18:54:00,
2013-03-24 15:09:00,39.9,38.0,29.63,NW,315,1.0,9.0,94,0.08,,,0.49,21,weatherlink.com 1.10,2013-03-24 19:09:00,
2013-03-24 15:24:00,39.8,38.0,29.64,North,355,0.0,5.0,94,0.07,,,0.52,30,weatherlink.com 1.10,2013-03-24 19:24:00,
2013-03-24 15:39:00,39.8,38.0,29.63,West,275,1.0,5.0,94,0.08,,,0.55,42,weatherlink.com 1.10,2013-03-24 19:39:00,
2013-03-24 15:54:00,39.8,38.0,29.62,West,277,0.0,5.0,94,0.08,,,0.56,46,weatherlink.com 1.10,2013-03-24 19:54:00,
2013-03-24 16:09:00,39.6,38.0,29.59,NNE,32,3.0,7.0,95,0.08,,,0.57,56,weatherlink.com 1.10,2013-03-24 20:09:00,
2013-03-24 16:24:00,39.5,38.0,29.60,NE,42,0.0,8.0,94,0.05,,,0.57,39,weatherlink.com 1.10,2013-03-24 20:24:00,
2013-03-24 16:39:00,39.4,38.0,29.62,SE,129,1.0,5.0,94,0.02,,,0.57,30,weatherlink.com 1.10,2013-03-24 20:39:00,
2013-03-24 16:54:00,39.2,38.0,29.64,NNE,16,1.0,6.0,94,0.03,,,0.59,37,weatherlink.com 1.10,2013-03-24 20:54:00,
2013-03-24 17:09:00,39.0,38.0,29.64,NE,36,2.0,6.0,94,0.04,,,0.61,37,weatherlink.com 1.10,2013-03-24 21:09:00,
2013-03-24 17:24:00,38.8,37.0,29.64,SW,235,4.0,7.0,94,0.04,,,0.61,32,weatherlink.com 1.10,2013-03-24 21:24:00,
2013-03-24 17:39:00,38.8,38.0,29.63,NE,46,3.0,8.0,95,0.05,,,0.62,51,weatherlink.com 1.10,2013-03-24 21:39:00,
2013-03-24 17:54:00,38.8,37.0,29.63,North,355,1.0,8.0,94,0.03,,,0.62,42,weatherlink.com 1.10,2013-03-24 21:54:00,
2013-03-24 18:09:00,38.7,37.0,29.60,NE,55,5.0,8.0,94,0.01,,,0.62,69,weatherlink.com 1.10,2013-03-24 22:09:00,
2013-03-24 18:24:00,38.8,37.0,29.60,NE,56,1.0,11.0,94,0.00,,,0.62,49,weatherlink.com 1.10,2013-03-24 22:24:00,
2013-03-24 18:39:00,38.6,37.0,29.60,NNW,348,3.0,14.0,93,0.00,,,0.62,35,weatherlink.com 1.10,2013-03-24 22:39:00,
2013-03-24 18:54:00,38.4,36.0,29.60,NNE,15,5.0,14.0,91,0.00,,,0.62,11,weatherlink.com 1.10,2013-03-24 22:54:00,
2013-03-24 19:09:00,38.4,36.0,29.61,ENE,61,4.0,13.0,91,0.00,,,0.62,5,weatherlink.com 1.10,2013-03-24 23:09:00,
2013-03-24 19:24:00,38.3,36.0,29.60,NE,38,5.0,10.0,91,0.00,,,0.62,0,weatherlink.com 1.10,2013-03-24 23:24:00,
2013-03-24 19:39:00,38.2,36.0,29.61,NE,45,7.0,10.0,91,0.00,,,0.62,0,weatherlink.com 1.10,2013-03-24 23:39:00,
2013-03-24 19:54:00,38.2,36.0,29.61,ENE,61,7.0,11.0,90,0.00,,,0.62,0,weatherlink.com 1.10,2013-03-24 23:54:00,
2013-03-24 20:09:00,38.1,36.0,29.62,North,5,4.0,8.0,90,0.00,,,0.62,0,weatherlink.com 1.10,2013-03-25 00:09:00,
2013-03-24 20:24:00,38.1,36.0,29.63,NNE,21,0.0,11.0,90,0.00,,,0.62,0,weatherlink.com 1.10,2013-03-25 00:24:00,
2013-03-24 20:39:00,38.0,35.0,29.63,NNW,340,3.0,9.0,90,0.00,,,0.62,0,weatherlink.com 1.10,2013-03-25 00:39:00,
2013-03-24 20:54:00,37.9,35.0,29.63,NW,315,2.0,11.0,90,0.00,,,0.62,0,weatherlink.com 1.10,2013-03-25 00:54:00,
2013-03-24 21:09:00,37.7,35.0,29.65,ENE,66,0.0,3.0,91,0.00,,,0.62,0,weatherlink.com 1.10,2013-03-25 01:09:00,
2013-03-24 21:24:00,37.6,35.0,29.64,NNE,26,3.0,6.0,91,0.00,,,0.62,0,weatherlink.com 1.10,2013-03-25 01:24:00,
2013-03-24 21:39:00,37.5,35.0,29.64,NNE,32,3.0,4.0,91,0.00,,,0.62,0,weatherlink.com 1.10,2013-03-25 01:39:00,
2013-03-24 21:54:00,37.4,35.0,29.65,North,11,0.0,5.0,91,0.00,,,0.62,0,weatherlink.com 1.10,2013-03-25 01:54:00,
2013-03-24 22:09:00,37.4,35.0,29.66,NE,49,0.0,5.0,91,0.00,,,0.62,0,weatherlink.com 1.10,2013-03-25 02:09:00,
2013-03-24 22:24:00,37.4,35.0,29.67,NE,46,0.0,2.0,91,0.00,,,0.62,0,weatherlink.com 1.10,2013-03-25 02:24:00,
2013-03-24 22:39:00,37.4,35.0,29.67,NNW,342,0.0,2.0,91,0.00,,,0.62,0,weatherlink.com 1.10,2013-03-25 02:39:00,
2013-03-24 22:54:00,37.4,35.0,29.65,NE,48,0.0,3.0,91,0.00,,,0.62,0,weatherlink.com 1.10,2013-03-25 02:54:00,
2013-03-24 23:09:00,37.3,35.0,29.64,NNE,29,1.0,5.0,91,0.00,,,0.62,0,weatherlink.com 1.10,2013-03-25 03:09:00,
2013-03-24 23:24:00,37.0,35.0,29.62,NE,55,2.0,6.0,92,0.00,,,0.62,0,weatherlink.com 1.10,2013-03-25 03:24:00,
2013-03-24 23:39:00,36.8,35.0,29.61,ENE,66,2.0,4.0,93,0.00,,,0.62,0,weatherlink.com 1.10,2013-03-25 03:39:00,
2013-03-24 23:54:00,36.7,35.0,29.61,NNE,30,2.0,4.0,93,0.00,,,0.62,0,weatherlink.com 1.10,2013-03-25 03:54:00,